EW3016 Weather Reports


time (UTC)temp
C
wind
direction
speed
KPH
gust
KPH
rain 1hr
cm
rain 24hr
cm
rain mn
cm
humidity
%
barometer
mb
20260510043017 10 135 3.2 17.7 0.00 0.94 0.00 88 1009.5
20260510040017 10 158 1.6 17.7 0.00 0.94 0.94 89 1009.4
20260510033017 10 135 4.8 24.1 0.00 0.94 0.94 90 1009.6
20260510030038 10 135 6.4 20.9 0.00 0.94 0.94 90 1009.2
20260510023017 10 135 8.0 17.7 0.00 0.94 0.94 90 1009.2
20260510020017 10 135 8.0 29.0 0.00 0.94 0.94 89 1009.1
20260510013016 10 135 4.8 19.3 0.00 0.94 0.94 89 1009.0
20260510010057 10 135 4.8 19.3 0.00 0.94 0.94 88 1008.6
20260510003018 11 158 3.2 19.3 0.00 0.94 0.94 87 1008.5
20260510000016 11 158 1.6 16.1 0.00 0.94 0.94 87 1008.1
20260509233017 11 135 1.6 12.9 0.00 0.94 0.94 87 1008.0
20260509230016 11 158 3.2 14.5 0.00 0.94 0.94 87 1007.7
20260509223056 11 158 3.2 19.3 0.00 0.94 0.94 88 1007.6
20260509220016 11 158 4.8 17.7 0.00 0.94 0.94 87 1007.7
20260509213058 11 135 6.4 22.5 0.00 0.94 0.94 89 1007.8
20260509210016 11 158 8.0 32.2 0.03 0.94 0.94 89 1008.1
20260509203016 11 158 8.0 24.1 0.03 0.94 0.94 90 1008.3
20260509200016 10 158 6.4 25.7 0.00 0.91 0.91 91 1008.4
20260509193016 10 180 3.2 16.1 0.00 0.91 0.91 91 1008.7
20260509190016 10 158 4.8 22.5 0.00 0.91 0.91 91 1008.8
20260509183016 10 158 4.8 27.4 0.00 0.91 0.91 91 1008.9
20260509180016 10 135 6.4 20.9 0.00 0.91 0.91 91 1008.9
20260509173016 10 135 8.0 20.9 0.00 0.91 0.91 91 1008.7
20260509170024 10 135 8.0 20.9 0.03 0.91 0.91 92 1008.8
20260509163018 10 135 8.0 17.7 0.08 0.94 0.91 93 1009.2
20260509160016 9 135 6.4 17.7 0.15 0.97 0.89 93 1009.8
20260509153016 9 135 8.0 24.1 0.18 0.94 0.84 93 1010.2
20260509150036 8 135 6.4 20.9 0.10 0.86 0.74 93 1010.3
20260509143016 8 135 8.0 20.9 0.10 0.86 0.66 94 1010.4
20260509140016 8 135 3.2 14.5 0.15 0.86 0.64 94 1010.3
20260509133016 8 135 6.4 20.9 0.13 0.79 0.56 94 1010.6
20260509130016 8 135 1.6 12.9 0.13 0.71 0.48 95 1010.7
20260509123015 7 0.0 6.4 0.20 0.66 0.43 95 1010.9
20260509120015 7 0.0 4.8 0.20 0.58 0.36 95 1011.0
20260509113015 7 0.0 3.2 0.10 0.46 0.23 94 1011.1
20260509110015 6 0.0 6.4 0.03 0.38 0.15 94 1011.1
20260509103038 6 0.0 0.0 0.00 0.36 0.13 94 1010.9
20260509100017 6 0.0 0.0 0.00 0.36 0.13 93 1010.8
20260509093018 6 0.0 0.0 0.03 0.36 0.13 93 1010.5
20260509090017 6 0.0 0.0 0.08 0.36 0.13 92 1011.1
20260509083019 5 90 1.6 9.7 0.10 0.33 0.10 91 1011.2
20260509080017 5 0.0 9.7 0.05 0.28 0.05 86 1011.1
20260509073017 5 0.0 4.8 0.00 0.23 0.00 79 1011.1
20260509070017 5 0.0 0.0 0.00 0.23 0.00 73 1010.8
20260509063017 5 0.0 0.0 0.00 0.23 0.00 70 1011.1
20260509060022 5 0.0 0.0 0.00 0.23 0.00 69 1011.1
20260509053017 5 0.0 0.0 0.00 0.23 0.00 71 1011.2
20260509050017 4 0.0 0.0 0.00 0.23 0.00 72 1011.2